Wind_Speed
6 7 8 9 9 10 10 11 12 13 14 15 14 13 13 12 12 12 13 13 14 14 14 14 13 13 13 13 14 14 13 12 11 11 10 10 10 9 9 9 10 10 9 8 9 11 13 12 12 11 9 9 8 7 6 6 6 6 6 6 6 7 7 7 8 8 9 9 9 9 8 8 8 8 8 7 7 6 6 6 6 6 5 5 6
8 9 10 10 11 11 11 11 12 13 14 14 14 13 13 14 15 16 15 14 14 14 15 15 15 15 15 14 14 14 14 13 13 12 11 11 10 10 10 10 11 11 10 10 10 12 14 13 12 12 11 12 10 9 8 7 8 8 7 7 7 7 8 8 8 9 9 9 9 9 9 9 9 8 8 8 8 7 7 7 7 7 6 6 6
9 10 11 11 12 12 12 12 13 13 13 13 14 14 15 15 16 19 19 17 15 15 15 16 17 17 17 16 15 15 15 15 15 14 14 13 13 12 11 11 12 12 12 12 11 12 12 11 12 13 13 13 13 12 10 9 9 9 9 9 9 9 9 9 9 9 9 10 10 10 10 9 9 9 9 9 9 9 8 8 8 7 7 6 6
9 10 12 13 14 14 13 14 14 14 15 15 16 16 16 16 19 22 22 20 19 18 17 17 18 18 18 18 17 17 17 17 17 17 16 16 15 15 14 13 13 12 13 13 12 13 12 12 12 13 14 15 14 14 12 11 11 11 11 10 10 10 10 10 10 10 10 10 10 10 10 10 10 10 10 10 10 10 10 9 9 8 7 7 6
10 11 12 14 14 14 14 15 16 17 17 17 18 18 19 22 23 23 22 21 20 20 19 19 18 18 19 20 19 18 19 19 19 18 18 17 17 17 17 16 16 15 14 14 14 14 13 12 13 14 15 16 16 15 14 14 13 12 12 11 11 12 12 12 12 12 11 11 11 11 11 11 11 11 11 11 11 11 11 11 10 9 8 7 7
11 12 13 14 15 15 16 16 17 18 18 18 20 20 22 25 24 22 22 21 21 20 20 19 19 19 19 19 19 19 19 20 20 20 19 19 18 18 18 18 18 18 17 16 16 15 15 13 14 16 17 18 18 17 16 16 15 15 14 13 12 12 13 13 13 13 13 12 12 12 12 12 12 12 12 12 12 12 12 12 11 10 9 8 7
12 13 14 14 15 15 16 17 18 20 19 19 21 22 23 23 22 20 21 21 20 20 20 19 18 18 19 18 19 19 20 20 20 21 20 20 19 19 19 19 19 19 19 18 18 17 17 16 16 17 17 18 18 17 17 16 16 17 17 15 13 14 13 13 14 14 14 14 14 14 13 13 13 13 13 13 13 14 13 13 13 12 11 10 9
13 14 16 16 15 15 16 18 20 21 20 20 22 22 21 20 20 19 19 19 19 19 19 18 17 17 18 18 19 19 19 20 20 20 20 19 19 19 19 19 20 20 20 20 19 19 19 18 18 18 18 18 17 18 18 18 19 19 19 17 15 16 15 13 14 14 15 16 15 15 15 15 14 14 14 14 14 15 15 15 14 13 12 11 10
14 15 16 16 16 16 17 18 20 21 20 20 21 21 19 18 18 17 17 17 17 16 17 17 16 17 18 19 19 19 19 19 20 19 19 18 18 19 19 20 20 20 21 21 20 20 20 20 19 18 18 18 17 18 19 20 21 20 20 20 17 17 16 14 14 15 16 16 17 17 17 16 16 15 15 15 15 16 16 16 16 15 14 13 12
13 14 15 17 17 17 17 18 18 19 19 19 19 18 17 16 16 16 16 15 15 15 15 16 16 16 17 18 18 19 19 20 20 20 20 20 19 19 19 19 20 20 20 21 21 21 21 21 20 19 19 18 18 18 19 21 22 21 21 21 18 17 17 16 15 16 17 17 17 18 18 18 18 17 17 16 16 16 17 17 17 17 16 15 14
13 14 16 17 17 17 17 16 16 17 17 17 16 16 15 14 13 14 15 15 15 15 14 15 15 15 16 17 17 18 19 20 21 21 21 21 21 21 20 19 19 19 20 20 20 20 20 21 21 21 20 19 20 19 20 22 22 20 20 20 20 19 18 18 18 17 18 18 18 19 19 19 19 19 18 18 18 18 18 18 18 18 18 17 16
13 14 15 15 15 15 15 15 15 15 15 14 14 14 13 13 13 13 14 14 14 14 13 13 13 14 14 15 16 17 18 19 20 20 20 20 21 21 21 20 19 19 19 19 19 19 19 20 21 22 21 21 21 22 23 23 21 19 19 20 21 22 20 20 21 20 19 19 19 19 20 20 20 20 20 20 19 19 19 19 19 19 19 18 18
11 12 12 13 13 13 13 13 13 13 13 13 12 12 12 12 12 12 13 13 13 13 13 12 11 12 13 14 15 15 15 17 18 19 19 19 20 20 21 21 20 19 19 18 18 18 18 19 20 22 22 22 22 23 24 23 21 20 21 21 22 23 22 22 23 23 22 22 20 20 21 21 21 21 21 21 21 21 20 20 20 20 20 20 19
9 10 11 11 12 12 12 12 12 12 12 12 12 12 12 12 12 12 12 12 13 13 13 12 12 12 12 13 14 14 14 15 16 17 18 18 18 19 19 19 20 20 19 19 18 18 18 19 20 21 22 23 23 24 24 24 23 22 22 23 23 23 23 24 25 25 26 25 24 23 23 23 23 23 23 23 22 22 22 21 21 21 21 21 20
10 10 11 11 11 12 12 11 12 12 12 12 12 12 12 12 12 12 12 12 12 13 13 13 13 13 12 12 13 14 15 15 16 17 18 17 17 17 18 19 20 20 21 21 20 20 20 20 20 21 22 23 24 25 25 24 24 24 23 24 24 23 24 25 26 27 28 28 27 27 26 25 25 24 24 24 24 23 23 23 22 22 22 21 21
11 11 11 12 12 12 12 12 12 13 13 12 12 12 13 13 12 13 13 13 13 13 13 13 13 14 14 13 12 13 14 16 17 17 17 17 17 17 18 19 20 21 22 23 23 22 22 21 21 21 21 23 24 25 25 25 25 25 25 25 26 26 26 25 27 29 30 29 29 29 29 28 27 26 26 26 25 25 24 24 24 23 23 22 22
12 12 12 12 12 12 12 13 13 12 12 12 12 12 12 12 12 12 13 13 13 14 14 14 14 14 14 14 13 13 13 14 15 16 16 16 17 18 18 18 19 21 22 23 24 24 24 23 22 22 22 22 23 24 25 25 25 25 26 27 27 28 28 27 28 30 30 31 31 31 31 30 30 29 28 27 27 27 26 25 25 24 24 24 23
14 14 13 13 13 12 12 13 13 12 12 12 12 12 12 12 12 12 13 14 14 15 15 15 15 14 14 14 14 14 13 13 13 14 14 15 17 17 17 17 18 19 20 21 23 24 25 25 24 23 23 23 23 23 24 25 25 25 25 27 28 29 30 30 30 30 30 31 31 31 32 32 32 31 29 29 28 29 28 28 27 26 25 25 25
16 16 15 15 14 13 13 13 12 12 11 11 11 12 12 12 12 12 13 13 14 15 15 14 14 15 15 14 14 14 14 13 13 12 12 14 16 17 16 17 17 18 19 19 20 21 23 24 25 24 24 23 23 23 24 25 25 25 25 26 27 29 30 31 32 31 31 31 31 31 32 31 32 33 32 31 30 30 30 30 29 28 27 26 26
16 18 18 17 16 14 14 13 13 12 11 11 11 12 12 12 11 12 12 13 13 13 14 14 14 14 14 14 14 14 14 14 14 13 12 12 13 15 15 16 17 17 18 19 19 20 21 22 23 24 25 24 24 24 24 25 25 26 26 27 27 28 30 31 32 33 33 33 32 32 32 32 33 34 34 34 33 32 32 32 32 31 30 28 27
16 18 19 19 18 17 16 15 14 13 13 12 12 12 12 12 11 11 12 12 12 12 13 14 14 14 14 14 15 15 15 15 15 15 13 12 12 13 14 15 16 16 17 18 19 19 20 21 22 23 24 24 24 24 24 25 25 26 27 28 28 29 30 31 32 33 34 34 34 34 33 33 33 34 36 37 37 36 35 34 35 34 32 30 29
17 18 20 21 20 19 17 16 15 14 13 13 13 13 12 11 11 11 11 11 11 12 12 13 14 15 15 15 15 16 16 16 16 16 15 14 13 13 13 13 14 15 16 17 18 19 20 21 22 22 23 23 24 23 23 24 25 26 27 28 28 29 31 32 32 33 34 34 35 35 35 35 34 35 36 38 38 39 38 37 37 36 34 32 31
18 19 20 22 22 21 19 17 15 14 14 14 13 13 13 12 11 11 11 11 12 12 13 13 14 14 15 15 16 16 17 16 17 17 17 16 16 15 14 13 14 15 16 16 17 18 19 20 21 21 21 21 22 23 22 23 24 25 26 27 28 29 30 32 33 33 34 34 35 35 36 36 36 36 37 38 39 39 40 39 38 38 36 34 34
19 20 21 23 23 22 20 18 16 15 14 14 14 14 13 13 12 12 12 12 12 13 13 13 14 14 15 15 16 17 17 17 17 17 17 18 17 17 16 15 14 15 17 17 18 18 19 20 21 22 21 21 21 22 22 22 23 24 24 25 26 28 30 31 33 33 34 35 35 35 36 37 38 38 38 39 39 39 40 40 39 39 38 36 36
20 21 22 23 23 23 21 20 18 16 15 14 14 14 14 13 12 12 12 12 13 13 13 14 14 14 15 15 16 17 18 18 19 18 18 18 18 17 17 17 15 15 16 17 19 19 19 20 21 23 23 23 22 22 23 23 23 23 23 24 25 26 28 30 32 33 34 35 36 37 37 37 38 39 39 39 39 40 41 41 40 40 39 38 37
20 21 21 22 23 23 21 20 18 16 15 14 14 14 14 13 12 12 12 13 13 14 14 14 14 14 15 15 16 17 18 19 19 19 18 18 18 18 18 18 18 17 16 17 18 19 20 19 21 23 24 25 26 25 25 26 26 25 24 25 25 26 27 28 30 32 34 35 37 38 39 39 39 40 40 40 40 40 42 41 41 41 41 40 39
19 21 21 21 23 22 21 20 18 17 15 14 14 14 13 13 13 13 13 13 14 14 14 14 14 15 15 16 17 18 19 19 19 19 19 18 19 19 19 20 20 20 19 18 18 19 21 21 21 22 24 26 27 28 27 28 29 29 28 27 27 28 28 29 30 30 32 34 36 38 39 40 41 41 41 41 41 41 41 41 42 43 42 41 41
19 21 20 21 22 22 20 19 17 16 15 14 14 14 13 13 13 14 14 14 14 15 15 15 15 15 16 17 17 18 18 18 18 19 19 19 19 19 20 20 21 22 22 21 19 18 20 22 22 22 24 26 27 28 29 29 30 31 31 31 31 30 31 31 31 31 32 33 35 38 39 40 41 42 42 43 43 42 42 42 43 44 44 43 43
19 20 20 21 22 21 20 18 17 15 14 13 14 14 13 14 14 14 14 14 14 15 15 16 16 16 17 17 18 18 18 17 18 19 19 20 20 19 20 21 22 23 25 24 22 20 19 21 23 23 23 25 26 27 28 28 29 30 31 32 33 33 33 33 33 33 33 33 34 36 39 41 41 42 43 43 44 45 45 44 43 44 45 45 44
18 20 20 21 22 21 19 18 16 15 14 13 13 13 13 13 14 14 15 15 15 15 16 16 16 17 17 17 17 17 18 18 18 19 20 20 21 21 21 21 22 23 25 26 25 22 21 20 21 23 24 25 25 25 26 27 28 29 30 31 32 33 33 33 33 34 35 35 35 36 38 40 42 42 43 44 44 46 46 46 44 43 44 45 45
18 20 21 21 22 22 20 18 17 15 14 14 13 13 13 13 13 14 16 16 16 16 16 16 17 17 17 17 17 17 18 19 19 19 20 20 21 21 22 22 23 23 24 26 26 23 23 21 19 20 23 26 26 25 25 26 27 29 29 30 31 32 33 34 34 34 35 36 36 36 37 40 42 43 44 44 45 45 47 47 46 45 44 44 45
19 20 21 21 22 22 20 18 17 15 15 15 15 14 14 14 14 14 16 17 17 17 17 16 17 18 18 18 17 17 19 19 20 20 20 21 21 22 22 22 23 24 25 27 27 24 23 23 20 19 21 23 24 26 26 26 26 27 29 30 31 32 33 34 34 34 35 35 36 37 38 39 42 43 44 45 46 46 47 48 48 47 46 45 45
21 21 21 22 22 21 19 18 17 16 15 16 16 16 15 15 15 15 16 17 18 17 17 17 18 19 19 18 18 18 19 20 21 21 21 22 22 22 22 22 23 25 26 27 28 26 23 22 21 19 20 21 21 22 25 26 26 26 27 29 31 32 33 33 33 33 34 34 36 37 38 39 41 43 45 46 47 47 48 48 49 48 47 46 46
21 21 21 22 22 20 18 17 16 15 15 15 16 16 16 16 16 16 17 17 17 17 17 17 19 20 20 20 19 19 21 21 21 22 22 23 23 23 22 23 23 24 26 27 28 28 25 23 22 20 20 21 20 20 23 26 27 27 28 29 30 30 31 32 33 33 33 34 35 36 37 39 41 43 45 46 48 49 49 49 49 49 49 48 47
20 20 23 23 22 20 17 16 15 14 14 14 15 16 15 15 15 15 16 17 16 17 17 18 19 21 21 20 20 21 22 22 22 23 23 23 24 23 22 23 24 24 25 27 28 29 29 26 24 23 22 22 22 21 23 25 28 29 30 30 30 30 30 31 33 33 34 34 35 35 36 38 40 42 45 47 48 49 50 50 50 50 50 49 48
20 21 24 23 21 19 16 14 14 13 13 13 14 14 14 14 14 14 15 16 16 17 18 19 20 21 21 21 21 21 22 22 22 23 23 24 24 24 23 23 24 24 26 28 28 29 31 30 27 26 25 24 23 23 24 26 28 29 31 32 31 30 29 31 32 32 33 34 35 36 35 37 39 41 44 46 48 49 50 50 51 51 51 50 50
22 22 23 21 19 18 14 13 13 12 12 13 13 14 14 14 14 14 15 15 16 17 18 20 21 21 22 22 21 22 22 22 22 23 23 24 24 25 25 24 25 25 26 27 29 30 31 31 30 29 27 26 25 24 25 28 30 29 30 31 31 31 30 30 30 30 31 33 34 35 35 36 38 40 42 45 48 49 50 50 51 51 52 51 51
22 22 21 20 19 16 12 12 12 12 12 13 13 13 14 15 15 16 16 17 17 18 19 20 22 22 22 22 22 23 23 23 23 23 23 24 24 25 26 26 26 27 27 27 29 30 31 32 32 31 29 28 27 25 25 29 32 32 31 31 31 30 31 31 30 28 30 32 34 35 35 36 37 39 41 44 47 49 50 50 51 51 52 52 51
22 20 18 18 18 14 11 12 12 12 13 14 14 14 14 15 16 17 18 19 19 19 20 21 22 23 23 23 22 23 23 24 23 23 23 24 25 25 26 27 27 27 27 27 28 30 31 31 32 32 31 30 29 27 26 29 32 32 33 35 34 31 31 32 31 29 30 32 33 34 35 36 37 38 40 42 45 49 50 50 50 51 51 51 51
22 18 17 18 16 12 12 12 12 12 14 15 16 17 17 18 19 19 20 21 21 21 22 23 24 24 24 24 24 23 23 23 24 24 24 25 25 25 26 27 27 27 27 27 28 30 31 31 32 31 31 30 29 29 28 30 32 32 33 36 38 36 34 33 32 32 33 34 35 34 33 34 36 38 40 42 44 47 50 51 50 50 51 51 50
22 18 19 18 15 13 13 12 12 14 15 17 19 20 21 21 22 23 24 24 24 25 24 24 25 25 25 25 25 25 24 24 24 24 25 25 25 25 25 27 27 27 27 28 28 30 31 32 32 31 31 31 29 29 30 31 32 34 34 36 38 38 38 37 34 33 35 38 38 36 32 31 34 37 39 41 43 45 49 52 51 50 50 50 50
19 17 18 17 14 13 13 13 14 16 17 19 21 22 24 24 25 26 27 27 28 29 27 26 25 25 26 26 26 27 26 25 24 24 24 24 25 25 25 25 26 26 27 27 28 30 31 32 32 31 31 30 29 30 31 31 33 35 36 37 38 38 39 40 38 35 35 39 42 41 35 30 32 36 39 40 42 44 48 52 52 50 49 49 49
16 17 17 15 13 13 13 14 16 18 20 22 23 25 26 27 28 30 30 31 31 32 31 29 27 26 26 27 28 28 28 26 24 24 23 24 24 24 24 24 25 26 27 28 29 30 31 32 32 31 31 31 30 30 31 33 34 36 36 37 38 39 40 42 43 40 38 39 44 45 40 33 31 35 39 40 41 43 47 51 52 51 49 48 48
16 17 16 14 13 13 14 16 18 20 22 24 26 28 29 30 31 33 34 34 34 34 34 33 30 27 27 28 29 29 28 27 25 24 23 24 24 25 24 24 24 25 27 28 29 30 31 32 32 32 31 32 32 31 31 33 35 36 37 37 38 40 40 41 44 44 41 40 44 48 45 39 35 34 38 40 41 42 45 50 52 52 51 48 48
17 17 16 14 14 14 16 18 19 21 23 25 27 30 32 33 34 35 36 36 36 36 36 36 33 30 28 29 30 29 27 26 25 25 24 24 24 25 25 24 24 25 27 28 30 31 33 34 34 33 31 32 33 32 31 33 36 37 38 39 39 39 40 41 43 44 43 42 45 49 49 45 41 36 36 39 41 42 44 48 52 53 52 50 48
17 16 15 15 15 16 18 20 22 23 24 25 27 30 31 33 34 36 37 38 37 36 35 36 35 32 30 30 29 27 25 24 25 25 25 24 24 24 25 25 25 25 27 28 30 31 33 35 35 34 32 32 33 33 32 33 36 37 39 41 41 40 41 43 43 44 44 44 46 52 53 48 43 39 35 36 41 43 43 46 51 53 53 51 49
16 16 16 17 17 18 20 22 24 26 25 26 27 28 30 31 34 36 38 39 39 37 34 34 35 34 32 31 28 25 24 25 26 26 26 25 24 24 25 26 26 26 27 28 29 31 33 34 35 35 33 32 32 33 32 33 35 36 38 41 41 41 43 45 45 46 46 46 47 53 55 50 44 39 34 33 39 44 43 45 49 53 53 53 51
16 17 18 18 18 20 22 24 27 28 27 27 28 29 30 32 34 37 38 39 39 37 33 32 35 36 34 31 28 25 26 27 27 27 26 25 25 25 25 26 27 27 27 28 30 32 33 33 34 34 33 31 31 32 33 34 34 36 38 40 39 41 44 47 48 49 49 49 48 52 56 51 43 38 34 31 37 43 44 44 48 52 54 54 52
17 19 19 20 21 22 24 26 28 29 29 29 30 31 32 33 35 37 38 39 38 36 34 33 35 37 36 33 29 27 26 26 26 26 26 25 25 25 26 27 27 28 28 29 31 32 32 32 32 33 32 30 30 32 33 33 34 36 39 40 39 41 44 47 49 50 53 53 49 51 57 51 40 36 35 32 35 42 44 44 46 51 53 54 53
18 20 21 22 23 24 26 27 28 29 29 30 31 33 33 34 36 37 38 38 37 36 35 34 37 39 37 32 29 28 28 28 27 26 25 25 25 25 27 28 29 29 29 30 31 31 31 31 31 30 30 30 30 31 32 32 33 35 38 40 40 41 43 46 49 52 56 55 51 54 58 49 38 35 33 31 35 41 44 43 45 49 52 53 53
19 22 24 25 24 25 26 27 28 29 29 30 31 33 34 35 37 37 37 37 38 37 36 36 40 41 37 31 28 29 31 31 29 27 26 26 26 27 28 30 31 30 30 30 31 31 30 29 29 28 28 29 31 31 31 31 32 33 36 38 39 41 43 46 48 52 58 57 54 56 57 48 41 37 32 30 34 39 42 42 43 46 50 51 51
Wind_Direction
294 304 308 311 316 321 321 318 316 317 319 322 325 322 322 322 320 317 312 308 306 305 303 300 299 299 298 297 297 297 298 297 296 298 297 291 284 278 271 267 271 283 294 282 262 248 239 241 246 240 233 239 250 253 240 231 227 221 215 212 211 211 210 208 205 206 210 212 212 208 204 203 205 210 212 213 215 213 211 207 200 199 196 184 175
298 302 304 307 313 317 318 317 318 321 321 322 323 321 318 319 320 316 308 301 298 298 298 297 295 293 293 292 291 290 291 293 294 295 295 294 288 281 276 272 275 279 279 272 265 251 241 245 245 238 240 238 240 251 246 236 232 228 224 220 220 218 216 216 214 212 212 214 215 215 214 210 208 210 214 216 217 218 216 213 210 204 198 187 179
300 301 304 308 311 314 316 319 323 323 320 317 316 313 309 310 315 312 303 295 291 291 292 291 289 289 290 289 288 287 285 286 288 289 289 289 287 284 278 274 274 274 273 270 266 256 249 254 246 232 237 239 235 239 241 240 237 234 231 225 224 224 221 220 219 220 219 219 220 219 219 217 213 212 214 218 219 219 219 217 216 211 204 193 184
295 299 305 311 314 316 318 323 327 324 317 312 309 308 308 307 305 303 299 293 288 287 289 286 284 286 289 288 287 286 286 285 284 283 283 283 283 283 282 278 273 269 269 268 266 262 260 261 254 241 237 239 237 235 235 236 237 238 237 232 228 227 227 225 221 223 224 225 226 224 223 221 219 216 214 218 220 220 221 220 218 215 209 199 188
296 303 310 317 319 320 319 320 323 322 313 309 309 308 307 304 301 301 300 295 288 285 285 283 281 282 284 285 286 286 286 287 285 284 283 281 280 280 281 280 276 271 267 266 265 265 265 261 256 247 238 237 238 236 234 232 230 233 237 238 235 231 229 229 226 225 225 228 231 229 227 224 222 220 217 217 220 222 222 221 220 217 212 204 195
304 309 315 320 320 317 317 315 315 315 309 303 303 300 298 301 303 302 299 296 291 286 284 282 280 281 281 282 283 285 287 288 287 285 284 283 282 279 279 279 278 275 270 266 264 264 264 260 255 250 241 237 237 237 236 233 230 230 232 232 237 242 235 231 230 228 227 225 229 233 232 229 225 224 222 219 219 222 223 223 222 219 215 208 201
309 312 314 317 316 310 307 306 303 303 302 297 296 297 299 302 303 300 296 295 294 291 288 283 281 281 281 281 281 283 287 290 289 286 284 283 282 279 276 276 276 276 274 270 266 264 261 256 254 255 254 251 248 247 246 243 239 237 236 229 225 237 240 236 233 230 231 228 225 229 232 232 229 226 226 224 221 221 222 223 224 223 219 212 206
310 311 312 313 311 303 297 295 294 294 296 295 297 302 304 303 301 298 296 295 295 294 290 284 278 276 276 277 278 282 286 289 290 289 287 284 282 279 275 274 274 275 277 275 271 267 264 259 255 257 261 262 257 254 253 248 243 242 246 241 229 230 231 232 239 235 231 232 228 226 228 230 231 229 227 227 226 223 222 222 224 225 224 220 213
310 311 310 309 306 301 296 294 295 298 299 299 300 303 303 302 301 300 300 299 297 294 291 286 281 277 275 275 274 276 280 284 285 286 287 288 286 284 280 275 273 274 275 276 275 271 270 267 263 260 261 265 261 257 255 250 247 246 249 248 242 239 233 226 236 242 237 234 233 229 227 226 227 229 227 227 228 226 224 222 222 224 226 226 221
309 309 306 305 304 303 302 300 300 301 301 301 302 303 304 304 303 303 303 301 298 296 293 290 287 283 280 278 276 273 273 275 277 279 282 284 286 288 286 280 276 274 273 273 274 273 272 270 269 264 261 264 264 259 257 253 250 249 251 252 249 252 251 236 231 241 243 237 235 233 230 228 226 225 225 225 226 227 228 226 223 223 225 227 227
308 305 303 303 306 307 306 306 304 304 304 305 304 304 305 306 304 302 302 302 300 299 296 292 289 286 283 281 279 277 273 271 272 276 279 280 283 286 287 285 282 279 277 274 273 271 268 267 268 268 265 263 263 263 261 258 256 256 258 257 253 254 259 250 236 238 245 243 240 237 233 232 229 226 224 223 223 225 228 229 228 226 225 225 227
306 305 306 307 309 310 309 308 308 308 307 306 303 302 303 304 303 301 301 303 304 303 300 296 292 288 287 285 284 283 279 276 275 276 278 279 282 285 285 285 285 285 283 280 275 271 268 266 267 268 267 264 262 262 262 264 267 268 265 261 256 253 254 252 242 235 241 245 244 244 241 236 233 231 228 225 223 223 225 228 230 230 229 227 227
310 309 311 312 312 312 311 310 309 306 304 302 301 301 303 303 302 302 302 304 306 307 305 302 297 294 293 291 290 288 284 281 281 281 281 281 282 283 283 283 285 286 286 283 279 275 271 269 267 267 266 264 263 262 263 265 267 266 265 266 263 258 256 255 246 236 237 241 241 243 245 243 239 235 233 230 227 225 224 225 228 231 232 231 230
320 319 318 317 317 315 313 311 307 303 303 304 305 305 306 305 304 305 307 309 310 309 309 306 301 297 296 294 293 293 289 286 286 286 286 287 285 282 282 282 284 286 288 287 283 280 277 273 271 269 268 266 265 265 265 266 265 262 261 263 264 261 258 256 250 241 239 240 239 239 239 240 241 240 236 234 232 230 227 225 225 228 231 232 232
332 329 326 323 320 316 313 310 307 306 308 308 307 307 306 306 308 309 311 312 311 308 306 304 302 301 299 294 291 292 294 293 291 292 291 291 288 283 281 282 282 284 286 287 287 285 283 280 276 273 272 270 268 267 267 266 265 263 260 258 260 260 259 256 251 245 240 239 240 241 238 235 236 238 239 238 235 233 231 229 226 225 227 230 232
345 338 332 326 320 315 312 309 306 306 306 304 303 304 305 306 307 308 309 309 307 305 302 301 301 301 301 298 293 290 290 292 292 294 294 293 291 288 286 284 283 283 284 285 287 287 286 285 282 279 275 271 270 268 268 267 266 264 262 259 257 257 257 256 252 248 243 240 240 240 240 238 235 234 236 239 238 236 233 232 229 226 225 227 229
359 349 340 332 323 317 313 308 305 304 302 301 302 301 301 302 303 305 307 308 307 305 303 302 302 302 302 302 301 297 293 292 292 292 292 292 291 291 291 289 286 284 283 283 284 284 285 285 285 284 281 277 273 270 268 269 268 267 265 262 260 257 256 255 253 251 247 244 243 241 239 240 239 235 233 236 238 238 235 234 233 231 228 227 227
9 0 350 341 332 323 315 309 306 305 302 300 299 298 297 298 301 303 304 306 306 305 304 303 303 303 303 304 304 304 301 298 295 292 291 291 290 290 292 291 289 288 285 284 283 282 283 283 283 283 282 281 279 275 272 271 270 269 267 266 264 261 258 255 253 253 250 247 246 245 243 240 239 238 235 234 236 238 237 235 234 233 232 230 229
11 6 359 351 342 333 323 316 312 309 304 300 295 295 295 295 297 298 298 300 301 303 304 304 304 304 305 307 307 307 307 305 302 298 295 295 294 294 294 291 289 289 288 286 285 285 284 285 285 285 282 280 278 277 275 274 273 271 269 267 266 264 261 258 254 253 253 252 250 249 250 246 241 240 238 235 236 238 238 237 234 233 233 233 232
8 6 3 358 351 342 334 327 321 315 310 304 298 295 292 291 290 291 292 294 298 302 304 305 305 306 308 310 311 310 310 310 309 306 303 299 298 299 299 295 292 290 288 288 287 287 287 287 288 288 288 284 280 276 274 272 272 271 270 268 266 265 262 259 257 256 254 254 253 252 252 249 244 242 240 239 237 237 238 238 237 233 231 231 233
4 3 3 1 356 349 342 335 326 319 312 306 300 294 291 288 288 289 291 294 299 304 306 307 308 310 313 314 314 313 313 313 313 312 310 307 302 301 301 300 297 295 292 290 289 287 287 287 287 288 289 290 287 282 277 273 270 269 269 268 267 265 263 260 258 258 258 256 254 253 252 250 246 243 243 243 241 238 236 236 237 235 232 230 231
1 360 1 360 357 352 345 336 327 317 310 305 299 295 292 291 292 294 297 301 305 308 309 309 311 312 314 315 315 314 314 314 313 313 313 312 309 306 304 302 299 296 294 291 289 288 287 286 286 286 287 289 291 289 285 280 275 271 268 268 267 266 265 264 261 260 260 259 257 254 253 251 249 246 244 244 243 240 238 236 235 235 234 233 232
359 357 358 359 356 351 344 335 326 317 309 304 301 298 297 298 301 303 306 309 311 310 310 309 310 311 312 313 313 312 311 311 311 312 312 311 310 309 306 303 298 294 292 289 286 285 284 284 285 285 285 284 286 289 289 286 282 278 274 271 269 268 266 265 264 262 261 260 258 255 252 250 249 248 246 244 243 242 241 240 237 234 233 235 236
357 356 358 358 355 349 343 335 326 318 310 307 305 303 304 306 308 310 311 312 311 308 308 308 308 308 308 310 310 310 310 310 310 310 310 310 309 308 305 302 297 292 291 291 288 285 282 282 282 282 283 281 281 282 285 286 285 283 280 277 273 271 269 267 265 264 262 260 259 256 253 250 249 249 248 246 245 243 242 243 241 235 231 233 237
355 355 356 356 353 348 341 335 327 319 313 310 308 306 306 308 309 311 311 310 308 306 305 305 304 304 305 307 309 310 310 310 310 310 309 309 308 308 306 303 299 293 290 290 290 289 285 282 281 281 280 280 279 278 279 282 283 283 283 282 280 276 273 270 267 265 263 261 259 257 254 252 249 249 249 248 247 245 243 243 242 238 233 231 234
351 352 352 352 351 346 340 333 327 322 317 313 309 304 304 307 309 310 310 309 307 304 302 300 299 300 303 306 307 307 308 308 309 309 309 309 308 308 307 305 303 298 294 291 289 289 288 285 283 280 279 278 278 277 276 277 279 280 281 282 283 282 278 274 270 267 265 262 260 257 255 253 251 250 249 249 248 247 245 243 242 240 237 234 233
345 348 348 349 349 344 338 332 327 324 319 313 308 305 307 309 309 310 310 308 306 303 299 297 299 302 304 306 305 304 306 307 309 309 310 310 310 309 307 305 302 299 296 292 289 288 288 287 285 282 279 277 277 276 275 275 276 278 280 280 281 283 283 280 276 271 267 264 261 259 256 254 253 251 250 249 248 248 246 243 242 241 239 237 235
340 345 347 347 346 342 336 332 328 323 317 313 311 310 312 312 311 310 308 307 306 302 301 301 304 306 305 304 303 304 306 308 310 311 311 311 310 308 307 305 303 301 299 295 291 288 286 285 284 282 280 277 275 275 275 275 275 276 278 279 280 281 282 283 281 277 272 267 262 260 257 255 253 252 250 248 248 247 246 243 242 241 240 238 237
332 341 344 344 343 339 334 331 329 324 319 317 315 314 313 311 309 307 305 305 305 304 304 305 305 305 302 302 303 305 307 310 312 312 312 310 309 307 306 304 304 304 303 301 298 294 290 285 282 281 281 279 277 276 277 277 278 278 278 279 280 280 281 282 282 280 277 272 265 261 258 256 254 251 250 249 247 246 245 244 242 241 240 240 239
324 334 338 339 338 336 333 331 329 328 325 323 319 316 313 310 307 305 305 306 306 305 304 304 302 301 301 302 305 306 307 309 311 311 310 308 307 307 305 304 304 305 305 303 302 302 299 292 285 282 281 282 282 281 281 282 283 284 283 283 283 283 282 282 282 280 278 275 269 263 258 256 254 251 250 248 247 246 244 244 242 241 240 240 240
315 325 331 334 333 332 331 330 330 329 328 324 322 319 316 312 308 308 309 309 309 306 302 301 300 299 301 304 305 305 304 306 308 308 307 306 305 305 305 305 305 306 306 305 304 306 305 300 292 285 281 282 285 287 288 288 288 289 289 288 288 287 287 285 283 282 279 276 272 266 259 255 253 251 249 248 247 245 244 243 243 242 241 240 240
307 316 324 327 328 330 329 328 329 329 328 325 323 322 319 316 313 310 309 309 309 305 302 300 299 300 302 304 304 303 303 305 307 306 306 305 304 303 304 305 306 307 308 307 306 307 307 305 301 294 287 285 288 291 292 291 290 291 291 292 292 292 291 289 286 284 282 278 273 269 263 256 251 249 248 247 246 245 244 243 242 243 242 241 241
302 310 318 321 324 327 326 326 328 328 327 325 322 320 317 315 315 313 312 310 308 304 301 301 300 301 303 304 304 302 302 305 306 305 304 302 302 302 302 303 305 307 308 308 307 307 308 307 305 303 299 295 295 295 294 294 293 292 292 293 295 296 296 294 291 288 286 282 277 271 265 259 252 248 246 246 245 245 244 243 243 243 243 243 242
299 307 316 318 320 322 323 324 327 326 324 321 317 315 313 312 314 314 313 310 306 303 302 302 302 303 304 305 304 302 302 305 305 303 301 300 300 300 301 302 303 305 307 306 306 307 308 308 308 307 304 302 302 299 295 295 295 294 294 295 297 299 300 299 298 296 292 288 282 276 269 263 255 248 244 243 244 244 244 243 243 243 243 243 243
295 304 312 314 315 317 319 322 323 321 317 313 311 309 308 310 312 312 310 308 306 304 304 304 302 303 305 305 304 302 303 305 304 301 299 298 298 298 299 300 301 302 303 303 304 306 307 308 308 307 304 303 303 301 296 294 294 296 298 299 301 302 303 303 303 302 299 294 289 282 274 267 259 252 245 242 242 242 243 243 242 242 242 242 242
291 304 309 308 309 311 316 320 318 314 312 308 305 303 305 308 310 310 308 307 308 308 306 305 303 303 304 304 303 302 302 303 302 300 298 297 297 297 298 298 298 299 299 300 302 303 303 304 306 305 303 303 302 300 298 295 295 298 300 302 303 304 305 305 305 306 304 300 295 289 281 272 264 256 248 242 240 240 241 242 241 240 241 241 241
289 302 305 302 304 307 312 316 314 312 310 305 301 301 304 308 309 308 307 308 310 310 308 306 303 303 303 303 303 301 301 302 300 298 297 297 297 296 295 295 295 295 296 298 299 299 300 302 304 303 303 302 301 300 300 298 297 299 300 301 303 305 305 306 306 307 306 304 301 296 288 278 269 261 253 245 240 239 239 240 240 239 239 240 240
289 298 297 295 298 301 308 313 312 313 311 306 303 303 305 308 309 309 310 310 310 310 309 307 304 302 302 302 302 301 300 300 298 297 296 297 296 295 293 292 293 294 295 297 297 297 299 301 303 303 303 302 301 302 303 301 300 302 301 300 301 304 305 305 306 306 305 304 303 301 295 286 274 265 257 249 242 239 238 238 239 239 238 238 239
288 291 286 285 288 294 305 311 312 314 313 309 306 305 307 310 311 312 311 310 310 309 309 307 305 303 302 301 301 300 299 298 297 296 296 296 295 293 291 291 292 294 296 297 298 298 299 301 301 302 303 303 304 305 305 302 302 304 304 302 302 303 304 304 307 308 306 304 304 304 300 292 281 270 262 253 245 239 237 237 237 237 237 236 237
284 283 275 277 281 292 306 310 311 313 312 311 308 306 307 309 309 311 309 308 308 309 308 307 306 304 302 301 300 300 298 297 297 297 297 296 295 293 292 292 293 295 297 298 299 299 300 300 300 301 302 303 305 307 305 303 302 302 302 302 302 303 303 302 306 310 308 306 305 304 302 295 285 274 265 257 248 241 237 236 235 236 236 236 236
279 272 270 275 282 297 307 308 310 310 310 310 308 305 306 306 306 307 306 307 308 308 307 306 304 303 301 300 300 299 298 297 297 297 297 297 295 293 292 292 293 295 297 299 301 301 300 300 300 301 302 304 306 305 303 303 303 301 301 301 302 304 304 303 305 309 310 309 306 303 302 299 287 275 266 259 251 243 238 236 235 234 234 234 235
270 263 268 276 286 299 304 304 307 309 309 309 305 303 303 303 304 305 305 307 309 309 306 303 302 301 299 299 299 299 297 297 297 297 297 297 296 295 293 293 294 296 298 300 301 301 301 301 301 303 304 305 305 304 303 304 302 301 302 304 304 305 305 304 304 307 313 314 309 303 302 302 292 276 265 259 253 245 239 235 234 234 233 233 233
263 264 271 278 290 299 302 305 309 311 311 309 307 305 304 302 302 303 305 307 310 311 307 303 300 299 298 298 298 298 297 297 297 297 297 297 297 296 295 295 296 298 300 301 302 302 302 301 302 304 305 305 305 305 305 304 302 302 304 306 306 306 307 308 307 310 317 318 312 306 303 304 299 282 266 258 253 247 240 235 233 233 232 232 232
261 268 274 281 293 302 303 307 310 310 310 309 308 308 308 307 305 304 305 306 308 309 308 303 299 299 298 298 297 297 296 295 296 297 297 297 297 297 297 298 299 301 303 304 304 304 303 302 303 305 306 305 305 306 306 304 302 304 306 306 306 307 308 310 309 312 319 320 315 311 307 306 306 291 268 256 252 248 241 235 232 231 231 231 230
261 269 277 285 295 301 302 304 305 305 307 308 308 309 310 309 308 306 305 305 305 307 307 303 298 297 298 298 296 296 294 293 296 298 298 296 296 297 299 300 301 304 305 306 305 304 303 304 304 305 306 305 304 305 306 305 304 306 307 306 306 308 309 309 310 314 320 322 319 315 310 308 308 296 273 256 249 247 242 235 231 230 230 229 229
262 269 277 285 291 295 297 299 300 301 303 305 306 306 306 306 305 303 301 301 302 303 304 301 297 296 297 296 295 294 294 295 298 300 298 296 295 295 298 301 303 305 306 306 305 302 302 303 304 305 305 303 303 304 305 305 306 307 307 305 307 309 308 307 310 315 321 324 323 317 311 308 306 297 278 258 246 244 242 236 230 228 228 228 227
261 267 274 280 284 288 291 293 294 296 299 301 300 299 298 297 297 297 297 297 298 299 299 298 296 295 295 293 293 295 297 300 302 301 299 297 295 295 298 301 303 304 304 305 303 300 300 302 302 302 302 302 302 303 305 305 305 305 304 304 307 309 308 308 312 316 320 324 324 319 313 309 305 297 281 260 245 241 240 236 230 227 226 227 226
257 265 271 276 280 283 286 288 289 292 295 297 295 292 290 289 289 291 292 293 294 295 294 293 293 294 294 291 290 292 296 301 303 302 299 297 297 298 300 303 303 302 303 303 301 299 300 301 300 300 300 301 302 303 304 305 305 305 303 303 307 308 308 310 312 315 318 322 324 322 316 310 306 298 284 263 244 238 237 235 230 225 225 225 225
255 264 269 273 277 281 283 285 287 290 292 293 291 288 286 285 286 287 288 289 290 291 290 289 289 289 288 286 285 286 292 299 302 301 299 298 298 300 303 305 305 303 302 300 298 299 301 301 299 299 299 301 302 303 304 304 305 304 303 304 307 308 308 309 311 313 317 322 326 325 318 311 306 298 285 266 245 236 234 233 229 225 223 224 225
253 261 266 269 273 277 280 284 287 289 290 290 289 287 285 285 285 286 285 285 286 288 290 288 284 281 279 279 282 285 291 297 300 300 300 299 298 300 305 307 305 302 299 297 297 299 301 300 298 297 298 300 300 301 301 302 303 302 302 304 306 307 307 308 310 312 317 322 328 326 318 312 306 298 286 269 248 234 231 232 229 224 222 222 223
250 259 265 270 274 278 281 285 288 290 290 288 286 285 285 285 286 285 284 284 287 289 290 288 284 280 279 280 283 286 290 294 297 299 300 298 297 299 304 307 305 301 298 297 297 299 300 298 296 295 296 298 299 299 300 301 301 301 301 303 305 307 307 307 310 313 317 324 330 325 316 311 306 299 287 271 253 236 228 230 228 224 222 221 222
Height
3218 3218 3217 3217 3217 3216 3216 3215 3215 3214 3213 3213 3212 3211 3210 3210 3209 3209 3208 3208 3207 3206 3205 3205 3205 3205 3205 3204 3204 3204 3204 3204 3204 3204 3204 3204 3204 3204 3203 3203 3202 3203 3205 3204 3205 3205 3206 3207 3209 3210 3209 3207 3207 3206 3206 3206 3206 3206 3206 3206 3206 3207 3207 3207 3208 3208 3210 3211 3212 3212 3213 3214 3215 3216 3217 3218 3218 3218 3219 3219 3219 3219 3220 3220 3220
3218 3217 3217 3216 3216 3215 3215 3214 3214 3213 3213 3212 3211 3210 3210 3209 3208 3208 3207 3207 3206 3205 3205 3204 3204 3204 3204 3204 3203 3203 3203 3203 3203 3203 3203 3203 3203 3203 3202 3202 3202 3203 3203 3204 3204 3204 3205 3207 3208 3209 3207 3206 3205 3205 3205 3205 3205 3205 3205 3205 3206 3206 3207 3207 3207 3208 3209 3210 3211 3212 3213 3213 3214 3215 3216 3217 3217 3218 3218 3219 3219 3219 3219 3220 3220
3217 3217 3216 3216 3215 3214 3214 3213 3213 3213 3212 3211 3210 3209 3208 3208 3207 3206 3206 3205 3205 3205 3204 3203 3202 3202 3202 3202 3202 3202 3202 3202 3202 3202 3202 3202 3202 3202 3201 3201 3201 3202 3202 3203 3203 3203 3205 3207 3206 3206 3205 3204 3204 3203 3204 3204 3204 3204 3205 3205 3205 3206 3206 3206 3207 3207 3208 3209 3210 3211 3212 3212 3213 3214 3215 3216 3217 3217 3218 3218 3219 3219 3219 3219 3220
3216 3216 3215 3215 3214 3214 3213 3213 3212 3212 3211 3210 3209 3208 3207 3206 3206 3205 3204 3203 3203 3203 3203 3202 3201 3201 3201 3201 3201 3200 3200 3200 3200 3200 3200 3200 3200 3200 3200 3200 3200 3200 3200 3201 3201 3201 3203 3205 3203 3203 3202 3202 3202 3201 3202 3202 3203 3203 3204 3204 3205 3205 3206 3206 3206 3207 3207 3208 3209 3210 3211 3212 3212 3213 3214 3215 3216 3217 3217 3218 3218 3219 3219 3219 3219
3215 3215 3214 3214 3213 3212 3212 3211 3211 3211 3209 3209 3208 3207 3206 3205 3205 3204 3202 3201 3201 3201 3201 3201 3200 3200 3199 3199 3199 3199 3198 3198 3198 3198 3198 3198 3198 3199 3199 3199 3199 3199 3199 3199 3199 3199 3200 3202 3201 3200 3199 3199 3199 3199 3199 3200 3201 3202 3203 3203 3204 3204 3205 3205 3206 3206 3207 3207 3208 3209 3210 3211 3211 3212 3213 3214 3215 3216 3216 3217 3218 3218 3219 3219 3219
3214 3214 3213 3213 3212 3211 3210 3210 3210 3209 3208 3207 3206 3205 3204 3204 3203 3202 3200 3199 3199 3199 3199 3199 3199 3198 3198 3197 3197 3197 3197 3196 3196 3196 3196 3196 3196 3197 3197 3197 3197 3197 3197 3197 3197 3197 3198 3198 3198 3197 3197 3197 3197 3197 3197 3198 3199 3201 3201 3202 3203 3203 3204 3204 3205 3205 3205 3206 3207 3208 3209 3209 3210 3211 3212 3212 3213 3214 3215 3216 3217 3218 3218 3218 3218
3213 3212 3212 3211 3211 3210 3209 3208 3208 3208 3207 3206 3205 3204 3203 3202 3201 3200 3199 3198 3197 3197 3197 3197 3197 3197 3196 3196 3195 3195 3195 3194 3194 3194 3194 3194 3194 3194 3194 3194 3194 3195 3195 3195 3196 3196 3196 3196 3195 3195 3196 3197 3197 3197 3198 3199 3200 3201 3201 3200 3201 3202 3202 3203 3203 3204 3204 3204 3205 3206 3207 3208 3209 3210 3211 3211 3212 3213 3214 3215 3216 3217 3218 3218 3218
3211 3211 3210 3210 3209 3209 3208 3207 3206 3206 3205 3204 3203 3202 3201 3200 3199 3198 3197 3196 3196 3195 3195 3195 3195 3195 3195 3194 3194 3194 3193 3193 3192 3192 3192 3192 3192 3192 3192 3192 3193 3193 3193 3193 3194 3194 3194 3194 3194 3194 3195 3196 3197 3197 3197 3198 3199 3200 3201 3200 3199 3199 3200 3201 3202 3202 3202 3203 3203 3204 3205 3206 3207 3208 3209 3210 3211 3212 3213 3214 3215 3216 3217 3218 3218
3210 3209 3208 3208 3207 3207 3206 3205 3205 3204 3203 3202 3201 3200 3199 3198 3197 3196 3195 3195 3194 3194 3193 3193 3193 3193 3193 3193 3193 3192 3192 3191 3191 3190 3190 3190 3190 3190 3190 3190 3191 3191 3191 3191 3191 3192 3192 3192 3193 3194 3194 3194 3195 3195 3195 3196 3197 3198 3199 3200 3199 3198 3198 3199 3201 3201 3201 3201 3202 3202 3203 3204 3205 3206 3208 3209 3210 3210 3211 3212 3213 3214 3216 3216 3217
3209 3208 3207 3206 3205 3205 3204 3204 3203 3202 3201 3200 3199 3198 3198 3197 3196 3195 3194 3193 3193 3193 3192 3192 3191 3191 3191 3191 3190 3190 3190 3189 3189 3188 3188 3188 3188 3188 3188 3188 3188 3189 3189 3189 3190 3190 3190 3190 3191 3192 3192 3192 3193 3193 3193 3194 3195 3196 3198 3200 3200 3199 3199 3200 3201 3200 3200 3200 3200 3201 3202 3202 3203 3204 3205 3207 3208 3209 3210 3211 3212 3213 3214 3215 3216
3208 3207 3206 3205 3204 3203 3202 3202 3201 3200 3199 3198 3197 3197 3196 3195 3195 3194 3193 3192 3192 3191 3191 3190 3189 3189 3189 3188 3188 3188 3188 3187 3187 3187 3187 3186 3186 3186 3186 3186 3186 3186 3187 3187 3188 3188 3188 3189 3189 3189 3190 3191 3191 3191 3191 3192 3193 3196 3198 3199 3199 3198 3198 3198 3199 3199 3199 3199 3199 3200 3200 3201 3202 3203 3203 3204 3206 3207 3208 3209 3210 3211 3212 3213 3214
3206 3206 3205 3203 3203 3202 3201 3200 3199 3198 3197 3197 3196 3196 3195 3194 3193 3193 3191 3191 3190 3190 3189 3188 3188 3187 3187 3186 3186 3186 3185 3185 3185 3185 3185 3184 3184 3184 3184 3184 3184 3184 3184 3185 3185 3186 3186 3187 3187 3187 3188 3189 3189 3189 3189 3189 3192 3194 3195 3195 3195 3194 3194 3195 3196 3196 3197 3197 3198 3199 3200 3200 3201 3202 3202 3203 3203 3205 3206 3207 3208 3210 3211 3211 3213
3205 3204 3203 3202 3201 3200 3199 3199 3198 3197 3197 3196 3196 3195 3194 3193 3192 3191 3190 3189 3188 3188 3187 3187 3186 3186 3185 3184 3184 3184 3184 3183 3183 3183 3182 3182 3182 3182 3182 3182 3182 3182 3182 3182 3183 3183 3184 3184 3185 3185 3185 3186 3186 3186 3186 3187 3189 3190 3191 3191 3191 3192 3192 3192 3193 3194 3194 3194 3195 3196 3198 3199 3200 3200 3201 3201 3202 3203 3204 3205 3206 3208 3209 3210 3211
3204 3203 3202 3201 3200 3199 3198 3198 3197 3196 3196 3195 3194 3193 3192 3191 3190 3190 3189 3188 3187 3186 3185 3185 3185 3184 3184 3183 3182 3182 3182 3182 3182 3181 3180 3180 3180 3180 3180 3180 3180 3180 3180 3180 3180 3180 3181 3181 3182 3182 3182 3183 3183 3183 3184 3185 3186 3187 3188 3188 3188 3189 3190 3190 3191 3191 3192 3192 3193 3193 3194 3195 3197 3198 3199 3200 3200 3201 3202 3202 3204 3205 3206 3208 3209
3202 3201 3200 3199 3199 3198 3197 3196 3196 3195 3194 3193 3192 3191 3190 3190 3189 3188 3187 3186 3185 3185 3184 3184 3183 3183 3183 3182 3181 3181 3181 3180 3180 3179 3179 3178 3178 3178 3178 3178 3178 3178 3177 3177 3178 3178 3178 3179 3179 3180 3180 3180 3180 3181 3181 3182 3183 3184 3185 3185 3185 3186 3187 3187 3188 3188 3189 3190 3191 3191 3192 3192 3193 3195 3197 3198 3199 3199 3200 3200 3201 3202 3204 3205 3207
3202 3201 3200 3199 3198 3197 3196 3195 3194 3193 3192 3191 3190 3190 3189 3188 3187 3186 3185 3185 3184 3184 3183 3182 3182 3181 3181 3181 3181 3180 3180 3179 3178 3178 3177 3177 3176 3176 3176 3176 3176 3176 3176 3175 3175 3175 3176 3176 3176 3177 3177 3177 3177 3178 3179 3179 3180 3181 3181 3182 3182 3182 3183 3184 3184 3184 3186 3187 3187 3188 3189 3190 3191 3192 3193 3195 3196 3197 3198 3198 3199 3200 3201 3202 3204
3201 3200 3199 3198 3197 3196 3195 3193 3192 3192 3191 3190 3189 3188 3188 3187 3186 3185 3184 3183 3183 3182 3181 3181 3180 3180 3180 3179 3179 3179 3179 3178 3177 3176 3176 3175 3175 3174 3174 3174 3174 3174 3174 3173 3173 3173 3173 3173 3174 3174 3174 3174 3175 3175 3176 3176 3177 3178 3178 3178 3179 3179 3180 3180 3180 3181 3183 3184 3184 3184 3185 3187 3188 3189 3190 3191 3193 3195 3196 3196 3197 3198 3198 3199 3201
3201 3200 3199 3198 3196 3195 3194 3192 3191 3190 3189 3189 3188 3187 3187 3186 3185 3184 3183 3182 3181 3180 3180 3179 3179 3179 3178 3178 3178 3177 3177 3177 3176 3176 3175 3174 3173 3173 3173 3172 3172 3172 3171 3171 3171 3171 3171 3171 3171 3171 3171 3171 3172 3172 3173 3173 3174 3174 3175 3175 3175 3176 3176 3177 3176 3178 3180 3181 3182 3182 3182 3183 3185 3186 3187 3188 3189 3191 3193 3194 3194 3195 3196 3197 3198
3200 3199 3198 3197 3195 3194 3193 3191 3190 3189 3189 3188 3187 3186 3186 3185 3184 3183 3182 3181 3180 3179 3179 3178 3178 3177 3177 3176 3176 3176 3175 3175 3175 3175 3174 3173 3172 3171 3171 3171 3170 3170 3169 3169 3169 3169 3168 3168 3168 3168 3168 3168 3169 3169 3170 3170 3170 3171 3172 3172 3172 3172 3173 3174 3174 3175 3176 3177 3178 3179 3180 3182 3183 3183 3184 3185 3186 3187 3189 3191 3191 3192 3193 3194 3195
3200 3199 3198 3196 3195 3193 3192 3191 3189 3188 3188 3187 3186 3185 3185 3184 3183 3182 3181 3180 3179 3179 3178 3177 3176 3176 3175 3175 3174 3174 3174 3173 3173 3173 3173 3172 3171 3170 3170 3169 3168 3168 3167 3167 3167 3167 3166 3166 3165 3165 3165 3165 3165 3166 3166 3167 3167 3167 3168 3168 3169 3169 3169 3170 3171 3171 3173 3174 3175 3176 3178 3179 3180 3181 3182 3183 3184 3184 3185 3187 3189 3189 3190 3191 3193
3199 3198 3196 3195 3194 3193 3191 3190 3189 3188 3187 3186 3185 3184 3183 3183 3181 3180 3180 3179 3178 3178 3177 3176 3175 3174 3174 3173 3173 3172 3172 3172 3171 3171 3171 3171 3171 3170 3169 3167 3166 3166 3166 3165 3165 3165 3164 3164 3164 3163 3162 3162 3162 3163 3163 3163 3164 3164 3164 3164 3165 3165 3166 3166 3167 3168 3169 3170 3172 3173 3174 3175 3176 3178 3179 3180 3181 3182 3182 3184 3185 3187 3187 3188 3189
3198 3196 3195 3194 3193 3191 3190 3189 3187 3186 3186 3185 3184 3183 3182 3181 3180 3179 3178 3178 3177 3176 3176 3175 3174 3173 3172 3172 3171 3171 3170 3170 3169 3169 3169 3169 3169 3168 3168 3167 3165 3164 3164 3163 3163 3162 3162 3162 3161 3161 3160 3160 3159 3159 3160 3160 3160 3160 3160 3161 3161 3162 3162 3163 3164 3165 3165 3166 3167 3169 3170 3171 3172 3173 3175 3176 3177 3179 3179 3180 3181 3183 3185 3185 3186
3196 3195 3194 3192 3191 3190 3188 3187 3186 3185 3184 3183 3182 3181 3180 3179 3178 3177 3177 3176 3176 3175 3174 3173 3173 3172 3171 3170 3170 3169 3169 3168 3168 3168 3167 3167 3166 3166 3166 3166 3165 3163 3162 3161 3161 3160 3160 3159 3159 3159 3158 3158 3157 3157 3156 3156 3156 3157 3157 3157 3158 3158 3158 3159 3160 3160 3161 3162 3163 3164 3166 3167 3168 3169 3170 3171 3172 3175 3176 3177 3178 3179 3181 3182 3183
3194 3193 3192 3190 3189 3188 3187 3185 3184 3183 3182 3181 3180 3179 3179 3178 3177 3176 3175 3175 3174 3174 3173 3172 3171 3171 3170 3169 3168 3168 3167 3167 3167 3166 3166 3165 3164 3164 3164 3164 3163 3162 3161 3159 3159 3158 3158 3157 3157 3156 3156 3155 3155 3155 3154 3153 3153 3153 3154 3154 3154 3154 3154 3155 3155 3156 3157 3158 3158 3160 3161 3162 3163 3164 3165 3166 3168 3170 3172 3174 3175 3175 3176 3178 3180
3192 3191 3190 3189 3188 3187 3185 3184 3182 3181 3180 3179 3178 3178 3177 3176 3175 3175 3174 3174 3173 3173 3172 3171 3170 3169 3168 3168 3167 3167 3166 3165 3165 3165 3164 3163 3162 3162 3161 3161 3161 3160 3159 3158 3157 3156 3156 3155 3154 3154 3154 3153 3153 3152 3152 3151 3150 3150 3151 3151 3151 3150 3150 3151 3151 3152 3152 3153 3154 3155 3156 3157 3159 3160 3161 3162 3164 3165 3167 3169 3171 3171 3172 3173 3175
3191 3190 3189 3187 3186 3185 3184 3182 3181 3179 3178 3178 3177 3176 3176 3175 3174 3173 3173 3172 3172 3171 3171 3170 3169 3168 3167 3167 3166 3165 3164 3164 3163 3162 3162 3161 3161 3160 3159 3158 3157 3157 3157 3156 3155 3154 3154 3153 3152 3151 3151 3150 3150 3150 3149 3148 3148 3148 3148 3148 3147 3147 3146 3146 3147 3148 3148 3149 3149 3150 3151 3152 3154 3155 3156 3158 3159 3161 3162 3164 3166 3167 3169 3170 3171
3189 3188 3187 3186 3185 3184 3182 3181 3179 3178 3177 3176 3176 3175 3174 3173 3172 3172 3171 3171 3171 3170 3169 3168 3168 3167 3166 3165 3164 3163 3162 3162 3161 3160 3160 3159 3159 3158 3156 3155 3154 3153 3153 3153 3153 3152 3151 3150 3150 3149 3148 3147 3147 3146 3146 3145 3145 3145 3145 3144 3144 3144 3143 3142 3142 3143 3143 3144 3144 3145 3146 3147 3148 3150 3151 3153 3154 3156 3157 3159 3161 3163 3164 3166 3167
3188 3187 3186 3185 3184 3183 3181 3179 3178 3176 3175 3175 3174 3173 3172 3171 3171 3170 3170 3169 3169 3168 3167 3167 3166 3165 3164 3164 3163 3162 3161 3160 3159 3158 3158 3157 3156 3156 3154 3153 3151 3150 3149 3150 3150 3150 3149 3148 3147 3147 3145 3144 3143 3143 3142 3142 3141 3141 3141 3141 3140 3140 3139 3139 3138 3138 3139 3139 3139 3140 3141 3142 3143 3145 3146 3148 3149 3151 3152 3154 3156 3158 3159 3161 3163
3187 3186 3185 3184 3183 3181 3180 3178 3176 3175 3174 3173 3172 3172 3171 3170 3169 3169 3168 3167 3167 3166 3166 3165 3164 3163 3163 3162 3161 3159 3158 3158 3157 3156 3156 3155 3154 3153 3153 3151 3149 3148 3146 3145 3146 3147 3147 3145 3144 3144 3143 3141 3140 3140 3139 3138 3138 3137 3137 3137 3136 3136 3136 3135 3134 3133 3133 3134 3134 3135 3135 3136 3138 3139 3141 3142 3144 3145 3147 3149 3151 3153 3154 3156 3158
3185 3185 3184 3183 3181 3180 3178 3176 3175 3173 3172 3171 3171 3170 3169 3169 3168 3167 3166 3166 3165 3164 3164 3163 3162 3161 3161 3160 3159 3157 3156 3156 3155 3154 3154 3153 3152 3151 3150 3149 3148 3146 3144 3142 3142 3143 3143 3142 3141 3141 3139 3138 3137 3137 3136 3135 3134 3134 3133 3132 3132 3131 3131 3130 3130 3129 3128 3128 3129 3129 3130 3131 3132 3133 3135 3136 3138 3140 3141 3143 3145 3147 3149 3151 3153
3184 3183 3182 3181 3179 3178 3176 3174 3172 3171 3170 3169 3169 3168 3168 3167 3166 3165 3164 3163 3163 3162 3162 3161 3160 3159 3159 3158 3157 3155 3154 3154 3153 3152 3151 3150 3150 3149 3148 3147 3145 3144 3143 3140 3139 3139 3139 3138 3138 3138 3136 3135 3134 3133 3133 3132 3131 3130 3129 3128 3127 3126 3125 3125 3125 3124 3123 3122 3122 3123 3124 3125 3126 3127 3129 3130 3132 3134 3135 3137 3139 3141 3144 3146 3148
3182 3181 3180 3179 3177 3175 3173 3172 3170 3169 3168 3167 3167 3166 3166 3165 3164 3163 3162 3161 3161 3160 3159 3159 3158 3157 3156 3155 3154 3153 3152 3152 3151 3150 3149 3148 3147 3146 3145 3144 3143 3141 3140 3138 3136 3136 3135 3134 3134 3134 3133 3132 3131 3130 3129 3128 3127 3126 3125 3124 3123 3122 3120 3120 3119 3118 3117 3117 3116 3117 3117 3118 3119 3121 3122 3124 3126 3128 3129 3131 3133 3135 3138 3141 3143
3180 3180 3179 3177 3175 3173 3171 3169 3168 3167 3166 3165 3164 3164 3163 3163 3162 3161 3160 3159 3159 3158 3158 3157 3156 3154 3154 3153 3152 3151 3150 3149 3149 3148 3147 3146 3145 3144 3143 3142 3141 3139 3137 3135 3133 3133 3133 3132 3131 3131 3130 3129 3129 3127 3125 3124 3123 3122 3121 3120 3119 3117 3116 3114 3114 3113 3112 3111 3110 3110 3110 3111 3113 3114 3116 3118 3120 3121 3123 3125 3127 3130 3132 3135 3137
3178 3178 3177 3175 3173 3171 3169 3168 3166 3165 3164 3163 3162 3162 3162 3161 3160 3159 3158 3158 3157 3156 3155 3154 3153 3152 3151 3151 3150 3149 3148 3147 3147 3146 3145 3144 3142 3142 3141 3139 3138 3136 3135 3133 3131 3129 3129 3129 3128 3127 3127 3125 3125 3124 3122 3120 3118 3118 3117 3116 3115 3114 3112 3110 3109 3108 3107 3105 3105 3104 3104 3104 3105 3107 3109 3111 3113 3115 3117 3119 3121 3123 3126 3128 3131
3176 3176 3175 3173 3172 3170 3168 3167 3165 3164 3163 3162 3161 3161 3160 3159 3158 3157 3156 3155 3155 3154 3153 3152 3151 3150 3149 3149 3148 3147 3146 3145 3145 3143 3142 3141 3140 3139 3138 3137 3135 3134 3132 3130 3129 3127 3126 3125 3125 3124 3124 3122 3121 3121 3119 3117 3115 3113 3112 3111 3110 3109 3108 3106 3104 3103 3101 3100 3099 3098 3098 3097 3098 3100 3102 3104 3106 3108 3110 3113 3115 3117 3120 3122 3125
3174 3173 3173 3171 3170 3168 3167 3166 3164 3163 3162 3161 3161 3160 3159 3157 3156 3155 3154 3153 3152 3152 3151 3150 3149 3148 3148 3147 3146 3145 3144 3143 3142 3141 3139 3138 3137 3136 3135 3134 3133 3131 3130 3128 3126 3125 3123 3122 3122 3121 3120 3119 3118 3117 3115 3113 3112 3110 3108 3106 3105 3105 3104 3102 3100 3099 3097 3095 3093 3092 3092 3091 3091 3092 3094 3096 3099 3101 3103 3106 3108 3111 3113 3116 3118
3171 3171 3170 3169 3168 3167 3166 3164 3163 3162 3161 3160 3159 3158 3157 3156 3154 3153 3152 3151 3150 3149 3149 3148 3147 3146 3145 3145 3144 3143 3142 3141 3140 3139 3137 3136 3135 3133 3132 3131 3130 3129 3127 3125 3124 3122 3120 3119 3119 3118 3116 3115 3114 3114 3112 3109 3107 3107 3105 3102 3101 3100 3099 3098 3097 3095 3093 3090 3089 3087 3086 3086 3085 3085 3087 3089 3091 3094 3096 3098 3101 3104 3107 3109 3112
3168 3168 3167 3167 3166 3165 3164 3162 3161 3160 3159 3158 3157 3156 3155 3154 3152 3151 3150 3148 3148 3147 3146 3145 3144 3144 3143 3142 3141 3140 3139 3139 3138 3136 3135 3133 3132 3131 3130 3128 3127 3125 3125 3123 3121 3119 3118 3116 3115 3114 3113 3111 3110 3110 3109 3105 3102 3101 3100 3098 3098 3097 3094 3093 3093 3092 3089 3086 3084 3082 3080 3080 3080 3079 3080 3082 3084 3086 3089 3091 3094 3097 3100 3103 3106
3166 3166 3165 3165 3164 3162 3161 3160 3159 3158 3157 3156 3155 3154 3153 3151 3150 3149 3148 3147 3146 3145 3144 3143 3142 3141 3140 3139 3138 3138 3137 3136 3135 3134 3132 3131 3129 3128 3127 3125 3124 3122 3121 3120 3118 3116 3114 3113 3112 3110 3109 3108 3106 3106 3105 3102 3099 3097 3095 3092 3092 3092 3091 3089 3088 3087 3085 3083 3080 3078 3076 3074 3073 3073 3074 3074 3076 3079 3081 3084 3087 3090 3093 3096 3099
3164 3164 3163 3162 3161 3160 3159 3158 3157 3156 3155 3154 3153 3152 3150 3149 3148 3147 3146 3145 3144 3142 3141 3140 3139 3138 3137 3136 3135 3134 3134 3133 3132 3130 3129 3127 3126 3125 3124 3122 3120 3119 3118 3117 3115 3113 3111 3110 3109 3107 3105 3104 3103 3101 3100 3098 3096 3094 3092 3088 3086 3086 3085 3084 3083 3082 3079 3077 3076 3074 3072 3069 3067 3067 3067 3068 3069 3072 3074 3077 3080 3083 3086 3089 3092
3162 3161 3160 3159 3158 3157 3156 3156 3155 3154 3153 3152 3151 3150 3148 3147 3146 3145 3144 3143 3142 3140 3139 3137 3136 3135 3133 3132 3131 3131 3130 3129 3128 3127 3126 3124 3123 3122 3121 3119 3117 3116 3114 3113 3112 3110 3108 3106 3105 3104 3102 3100 3099 3097 3095 3094 3092 3089 3088 3086 3083 3081 3079 3077 3078 3078 3075 3071 3069 3068 3067 3065 3061 3060 3060 3061 3062 3065 3066 3069 3073 3076 3079 3083 3086
3159 3158 3157 3156 3155 3154 3153 3153 3153 3152 3151 3150 3149 3148 3146 3145 3144 3143 3142 3141 3139 3138 3136 3135 3133 3132 3130 3129 3128 3127 3126 3126 3125 3124 3123 3121 3120 3119 3118 3116 3115 3113 3111 3110 3109 3107 3105 3103 3101 3100 3098 3097 3096 3093 3091 3090 3088 3085 3083 3081 3078 3076 3074 3071 3071 3073 3071 3066 3061 3060 3061 3060 3056 3053 3053 3054 3056 3058 3059 3062 3066 3069 3073 3076 3080
3156 3155 3154 3154 3152 3151 3150 3150 3150 3149 3148 3147 3146 3145 3143 3142 3141 3139 3138 3137 3136 3134 3133 3131 3130 3129 3127 3126 3125 3124 3123 3122 3121 3120 3119 3118 3117 3116 3115 3113 3112 3110 3108 3107 3105 3104 3102 3099 3098 3097 3095 3093 3091 3090 3088 3085 3083 3080 3079 3077 3074 3071 3069 3066 3063 3064 3065 3062 3055 3051 3052 3054 3051 3046 3046 3047 3049 3050 3052 3055 3059 3063 3067 3070 3073
3152 3152 3152 3151 3149 3148 3147 3147 3147 3146 3145 3144 3143 3141 3140 3138 3137 3136 3135 3134 3132 3131 3129 3128 3127 3126 3124 3123 3122 3121 3120 3119 3118 3117 3116 3115 3114 3113 3112 3111 3109 3107 3105 3103 3102 3100 3098 3096 3094 3093 3092 3089 3087 3086 3085 3081 3078 3076 3074 3072 3070 3067 3065 3062 3058 3057 3058 3057 3050 3044 3042 3045 3045 3040 3038 3040 3042 3043 3045 3048 3052 3056 3060 3064 3067
3149 3149 3149 3148 3147 3145 3144 3144 3143 3143 3142 3141 3140 3138 3136 3135 3133 3132 3131 3129 3128 3127 3126 3125 3123 3122 3121 3120 3119 3118 3117 3116 3115 3114 3113 3112 3111 3110 3109 3108 3106 3105 3103 3101 3099 3096 3094 3092 3090 3089 3089 3086 3083 3082 3081 3078 3074 3072 3069 3067 3066 3064 3061 3058 3054 3052 3052 3051 3046 3038 3034 3036 3037 3033 3030 3032 3034 3035 3037 3041 3044 3048 3053 3057 3060
3146 3146 3146 3145 3144 3142 3142 3141 3140 3140 3139 3138 3136 3135 3133 3132 3130 3128 3126 3125 3124 3123 3122 3121 3120 3119 3118 3116 3115 3115 3115 3114 3112 3111 3110 3109 3108 3107 3106 3105 3104 3102 3100 3098 3096 3093 3091 3089 3086 3085 3084 3082 3079 3077 3077 3075 3071 3068 3064 3061 3060 3059 3056 3053 3051 3049 3048 3046 3041 3033 3027 3028 3029 3025 3023 3025 3026 3027 3030 3033 3037 3041 3045 3050 3054
3143 3143 3143 3142 3141 3140 3139 3138 3137 3136 3136 3135 3133 3132 3130 3129 3127 3125 3123 3121 3120 3119 3119 3118 3117 3116 3115 3113 3113 3112 3112 3111 3110 3108 3107 3106 3105 3104 3103 3102 3101 3099 3098 3096 3093 3090 3088 3086 3083 3081 3080 3079 3076 3073 3072 3071 3068 3065 3061 3057 3055 3053 3049 3046 3045 3044 3042 3042 3038 3029 3020 3019 3020 3017 3015 3018 3019 3019 3022 3026 3030 3034 3038 3043 3047
3140 3140 3140 3139 3138 3137 3136 3135 3134 3133 3133 3132 3130 3129 3128 3126 3124 3122 3120 3118 3116 3116 3115 3115 3114 3113 3112 3111 3110 3109 3109 3108 3107 3106 3104 3103 3102 3100 3100 3099 3097 3096 3095 3092 3089 3087 3085 3083 3080 3078 3076 3075 3073 3070 3068 3066 3064 3061 3057 3054 3052 3049 3044 3040 3039 3037 3036 3035 3034 3026 3014 3010 3012 3010 3007 3009 3010 3011 3015 3018 3022 3027 3031 3036 3041
3136 3136 3136 3136 3135 3134 3132 3132 3131 3130 3130 3129 3128 3126 3125 3123 3121 3119 3117 3115 3113 3112 3111 3111 3111 3109 3108 3107 3107 3105 3105 3104 3103 3102 3101 3099 3098 3097 3096 3095 3093 3092 3091 3089 3086 3083 3082 3079 3077 3074 3072 3071 3069 3067 3065 3062 3060 3057 3052 3049 3048 3045 3040 3036 3033 3031 3028 3026 3027 3021 3009 3003 3005 3003 3000 3001 3002 3004 3007 3011 3015 3019 3024 3029 3034
3132 3133 3133 3132 3131 3130 3129 3129 3128 3127 3126 3126 3124 3122 3121 3119 3117 3115 3113 3111 3109 3108 3108 3108 3106 3103 3102 3103 3104 3102 3101 3100 3099 3098 3097 3095 3094 3093 3092 3090 3089 3088 3087 3084 3082 3080 3078 3076 3074 3071 3069 3067 3065 3063 3062 3059 3057 3054 3049 3045 3043 3040 3036 3032 3028 3023 3019 3018 3019 3014 3003 2997 2998 2997 2994 2994 2994 2997 3001 3005 3009 3013 3018 3023 3028
3129 3130 3130 3129 3128 3127 3126 3125 3124 3123 3122 3121 3120 3118 3116 3115 3113 3111 3109 3107 3105 3104 3104 3103 3100 3098 3099 3100 3100 3098 3097 3095 3094 3093 3092 3091 3090 3090 3088 3086 3085 3084 3082 3080 3078 3076 3074 3072 3071 3068 3066 3064 3062 3060 3058 3056 3054 3051 3047 3043 3039 3036 3032 3028 3024 3018 3011 3009 3011 3007 2996 2991 2991 2990 2990 2988 2987 2990 2995 2999 3003 3007 3012 3017 3023